User: anonymous   Login
Location: Central Coast NSW, Australia
(33.2407°S, 151.4316°E)
Time: 08:36:10
(UTC+10:00)
Language:

EO-88 - Orbit

View from above orbital plane
View from above orbital plane
View from above satellite
View from above satellite

Ground track
Ground track

The orbit data is extracted from the following two-line orbital elements,

1 42017U 17008BX  18198.94600725 +.00001168 +00000-0 +50394-4 0  9991
2 42017 097.4463 263.8192 0004701 272.1197 087.9502 15.24533972078750
Epoch (UTC): 17 July 2018 22:42:15
Eccentricity: 0.0004701
inclination: 97.4463°
perigee height: 489 km
apogee height: 495 km
right ascension of ascending node: 263.8192°
argument of perigee: 272.1197°
revolutions per day: 15.24533972
mean anomaly at epoch: 87.9502°
orbit number at epoch: 7875

The dashed part of the orbit path shows where the satellite is in the earth's shadow,  

DLR